| time (UTC) | temp F | wind direction | speed MPH | gust MPH | rain 1hr in | rain 24hr in | rain mn in | humidity % | barometer mb |
| 20260831130004 | 80 | 243 | 8.0 | 14.0 | 0.00 | 0.00 | 0.00 | 56 | 1013.1 |
| 20260831125403 | 80 | 248 | 6.0 | 14.0 | 0.00 | 0.00 | 0.00 | 56 | 1013.2 |
| 20260831124503 | 81 | 239 | 6.0 | 11.0 | 0.00 | 0.00 | 0.00 | 54 | 1013.2 |
| 20260831123603 | 81 | 225 | 5.0 | 12.0 | 0.00 | 0.00 | 0.00 | 53 | 1013.2 |
| 20260831122703 | 83 | 262 | 4.0 | 11.0 | 0.00 | 0.00 | 0.00 | 52 | 1013.3 |
| 20260831121803 | 83 | 247 | 3.0 | 12.0 | 0.00 | 0.00 | 0.00 | 54 | 1013.2 |
| 20260831120903 | 81 | 233 | 4.0 | 9.0 | 0.00 | 0.00 | 0.00 | 54 | 1013.3 |
| 20260831120004 | 81 | 234 | 4.0 | 9.0 | 0.00 | 0.00 | 0.00 | 55 | 1013.3 |
| 20260831115617 | 80 | 220 | 4.0 | 9.0 | 0.00 | 0.00 | 0.00 | 54 | 1013.3 |
| 20260831114503 | 81 | 258 | 4.0 | 8.0 | 0.00 | 0.00 | 0.00 | 54 | 1013.5 |
| 20260831113818 | 80 | 251 | 4.0 | 11.0 | 0.00 | 0.00 | 0.00 | 56 | 1013.7 |
| 20260831112703 | 81 | 268 | 2.0 | 7.0 | 0.00 | 0.00 | 0.00 | 54 | 1013.8 |
| 20260831111803 | 80 | 265 | 3.0 | 9.0 | 0.00 | 0.00 | 0.00 | 57 | 1013.8 |
| 20260831110903 | 81 | 249 | 2.0 | 9.0 | 0.00 | 0.00 | 0.00 | 56 | 1013.9 |
| 20260831110004 | 80 | 261 | 3.0 | 9.0 | 0.00 | 0.00 | 0.00 | 58 | 1013.8 |
| 20260831105403 | 80 | 262 | 2.0 | 9.0 | 0.00 | 0.00 | 0.00 | 59 | 1014.0 |
| 20260831104503 | 80 | 259 | 2.0 | 6.0 | 0.00 | 0.00 | 0.00 | 59 | 1013.9 |
| 20260831103603 | 79 | 246 | 3.0 | 8.0 | 0.00 | 0.00 | 0.00 | 58 | 1013.9 |
| 20260831102917 | 80 | 265 | 3.0 | 7.0 | 0.00 | 0.00 | 0.00 | 58 | 1014.0 |
| 20260831101803 | 79 | 253 | 3.0 | 9.0 | 0.00 | 0.00 | 0.00 | 59 | 1014.0 |
| 20260831100903 | 78 | 245 | 4.0 | 9.0 | 0.00 | 0.00 | 0.00 | 59 | 1014.0 |
| 20260831100003 | 78 | 241 | 3.0 | 7.0 | 0.00 | 0.00 | 0.00 | 55 | 1014.0 |
| 20260831095403 | 77 | 249 | 3.0 | 7.0 | 0.00 | 0.00 | 0.00 | 57 | 1014.0 |
| 20260831094718 | 78 | 254 | 3.0 | 6.0 | 0.00 | 0.00 | 0.00 | 58 | 1014.0 |
| 20260831093603 | 78 | 252 | 2.0 | 7.0 | 0.00 | 0.00 | 0.00 | 58 | 1014.0 |
| 20260831092703 | 77 | 251 | 4.0 | 8.0 | 0.00 | 0.00 | 0.00 | 61 | 1014.1 |
| 20260831091803 | 79 | 261 | 2.0 | 5.0 | 0.00 | 0.00 | 0.00 | 59 | 1014.1 |
| 20260831090903 | 78 | 263 | 1.0 | 5.0 | 0.00 | 0.00 | 0.00 | 60 | 1014.1 |
| 20260831090004 | 78 | 273 | 1.0 | 4.0 | 0.00 | 0.00 | 0.00 | 59 | 1014.1 |
| 20260831085403 | 78 | 264 | 1.0 | 3.0 | 0.00 | 0.00 | 0.00 | 59 | 1014.1 |
| 20260831084503 | 77 | 263 | 1.0 | 6.0 | 0.00 | 0.00 | 0.00 | 62 | 1014.0 |
| 20260831083603 | 77 | 259 | 1.0 | 6.0 | 0.00 | 0.00 | 0.00 | 62 | 1014.0 |
| 20260831082703 | 76 | 258 | 1.0 | 4.0 | 0.00 | 0.00 | 0.00 | 61 | 1013.8 |
| 20260831082017 | 76 | 294 | 1.0 | 3.0 | 0.00 | 0.00 | 0.00 | 59 | 1013.8 |
| 20260831080903 | 76 | 280 | 0.0 | 1.0 | 0.00 | 0.00 | 0.00 | 61 | 1013.7 |
| 20260831080004 | 74 | 255 | 0.0 | 2.0 | 0.00 | 0.00 | 0.00 | 65 | 1013.7 |
| 20260831075403 | 74 | 285 | 0.0 | 1.0 | 0.00 | 0.00 | 0.00 | 67 | 1013.7 |
| 20260831074717 | 73 | 290 | 0.0 | 2.0 | 0.00 | 0.00 | 0.00 | 66 | 1013.7 |
| 20260831073816 | 72 | 258 | 2.0 | 3.0 | 0.00 | 0.00 | 0.00 | 68 | 1013.6 |
| 20260831072703 | 73 | 275 | 0.0 | 2.0 | 0.00 | 0.00 | 0.00 | 65 | 1013.6 |
| 20260831071803 | 72 | 0 | 0.0 | 0.0 | 0.00 | 0.00 | 0.00 | 65 | 1013.5 |
| 20260831070903 | 72 | 0 | 0.0 | 0.0 | 0.00 | 0.00 | 0.00 | 65 | 1013.3 |
| 20260831070003 | 72 | 273 | 0.0 | 2.0 | 0.00 | 0.00 | 0.00 | 65 | 1013.3 |
| 20260831065403 | 72 | 273 | 0.0 | 2.0 | 0.00 | 0.00 | 0.00 | 66 | 1013.2 |
| 20260831064503 | 72 | 0 | 0.0 | 0.0 | 0.00 | 0.00 | 0.00 | 65 | 1013.1 |
| 20260831063603 | 70 | 0 | 0.0 | 0.0 | 0.00 | 0.00 | 0.00 | 67 | 1013.0 |
| 20260831062917 | 70 | 305 | 0.0 | 2.0 | 0.00 | 0.00 | 0.00 | 66 | 1013.1 |
| 20260831061803 | 72 | 73 | 3.0 | 8.0 | 0.00 | 0.00 | 0.00 | 64 | 1013.2 |
| 20260831060903 | 71 | 74 | 4.0 | 7.0 | 0.00 | 0.00 | 0.00 | 64 | 1012.9 |
| 20260831060004 | 70 | 71 | 3.0 | 6.0 | 0.00 | 0.00 | 0.00 | 65 | 1012.9 |
| 20260831055617 | 70 | 74 | 3.0 | 6.0 | 0.00 | 0.00 | 0.00 | 65 | 1012.9 |
| 20260831054503 | 69 | 68 | 5.0 | 10.0 | 0.00 | 0.00 | 0.00 | 66 | 1013.1 |
| 20260831053603 | 69 | 71 | 4.0 | 10.0 | 0.00 | 0.00 | 0.00 | 67 | 1012.9 |
| 20260831052703 | 68 | 71 | 2.0 | 8.0 | 0.00 | 0.00 | 0.00 | 67 | 1012.9 |
| 20260831051803 | 68 | 78 | 3.0 | 10.0 | 0.00 | 0.00 | 0.00 | 67 | 1012.8 |
| 20260831050903 | 68 | 66 | 4.0 | 8.0 | 0.00 | 0.00 | 0.00 | 67 | 1012.8 |
| 20260831050004 | 68 | 63 | 3.0 | 9.0 | 0.00 | 0.00 | 0.00 | 67 | 1012.9 |
| 20260831045403 | 68 | 64 | 4.0 | 8.0 | 0.00 | 0.00 | 0.00 | 67 | 1012.9 |
| 20260831044718 | 68 | 68 | 4.0 | 9.0 | 0.00 | 0.00 | 0.00 | 67 | 1012.8 |
| 20260831043603 | 68 | 70 | 4.0 | 9.0 | 0.00 | 0.00 | 0.00 | 67 | 1012.9 |
| 20260831042703 | 68 | 65 | 4.0 | 11.0 | 0.00 | 0.00 | 0.00 | 66 | 1012.8 |
| 20260831041803 | 68 | 70 | 5.0 | 14.0 | 0.00 | 0.00 | 0.00 | 66 | 1012.8 |
| 20260831041117 | 68 | 69 | 4.0 | 11.0 | 0.00 | 0.00 | 0.00 | 67 | 1012.9 |
| 20260831040217 | 68 | 65 | 5.0 | 11.0 | 0.00 | 0.00 | 0.00 | 66 | 1012.9 |
| 20260831035403 | 68 | 63 | 5.0 | 11.0 | 0.00 | 0.00 | 0.00 | 66 | 1012.8 |
| 20260831034718 | 68 | 61 | 5.0 | 11.0 | 0.00 | 0.00 | 0.00 | 66 | 1012.9 |
| 20260831033603 | 68 | 72 | 6.0 | 11.0 | 0.00 | 0.00 | 0.00 | 67 | 1012.9 |
| 20260831032918 | 68 | 75 | 7.0 | 13.0 | 0.00 | 0.00 | 0.00 | 67 | 1012.9 |
| 20260831031803 | 68 | 75 | 7.0 | 13.0 | 0.00 | 0.00 | 0.00 | 67 | 1012.9 |
| 20260831030903 | 68 | 77 | 8.0 | 12.0 | 0.00 | 0.00 | 0.00 | 68 | 1012.9 |
| 20260831030003 | 68 | 79 | 7.0 | 12.0 | 0.00 | 0.00 | 0.00 | 69 | 1013.0 |
| 20260831025403 | 67 | 80 | 6.0 | 12.0 | 0.00 | 0.00 | 0.00 | 69 | 1013.0 |
| 20260831024503 | 66 | 107 | 2.0 | 9.0 | 0.00 | 0.00 | 0.00 | 70 | 1013.1 |
| 20260831023603 | 67 | 214 | 1.0 | 3.0 | 0.00 | 0.00 | 0.00 | 69 | 1013.1 |
| 20260831022703 | 67 | 261 | 1.0 | 4.0 | 0.00 | 0.00 | 0.00 | 68 | 1013.2 |
| 20260831021803 | 68 | 332 | 1.0 | 4.0 | 0.00 | 0.00 | 0.00 | 67 | 1013.1 |
| 20260831021117 | 69 | 24 | 2.0 | 8.0 | 0.00 | 0.00 | 0.00 | 67 | 1013.2 |
| 20260831020218 | 69 | 32 | 2.0 | 6.0 | 0.00 | 0.00 | 0.00 | 67 | 1013.1 |
| 20260831015403 | 68 | 46 | 2.0 | 9.0 | 0.00 | 0.00 | 0.00 | 67 | 1013.2 |
| 20260831014503 | 69 | 46 | 3.0 | 9.0 | 0.00 | 0.00 | 0.00 | 66 | 1013.2 |
| 20260831013818 | 69 | 59 | 6.0 | 10.0 | 0.00 | 0.00 | 0.00 | 66 | 1013.2 |
| 20260831012703 | 69 | 72 | 8.0 | 14.0 | 0.00 | 0.00 | 0.00 | 66 | 1013.2 |
| 20260831011803 | 69 | 67 | 7.0 | 12.0 | 0.00 | 0.00 | 0.00 | 67 | 1013.2 |
| 20260831010903 | 69 | 65 | 6.0 | 13.0 | 0.00 | 0.00 | 0.00 | 67 | 1013.3 |
| 20260831010003 | 69 | 65 | 7.0 | 12.0 | 0.00 | 0.00 | 0.00 | 67 | 1013.3 |
| 20260831005403 | 69 | 71 | 7.0 | 13.0 | 0.00 | 0.00 | 0.00 | 67 | 1013.2 |
| 20260831004503 | 69 | 74 | 8.0 | 14.0 | 0.00 | 0.00 | 0.00 | 67 | 1013.2 |
| 20260831003818 | 69 | 73 | 9.0 | 15.0 | 0.00 | 0.00 | 0.00 | 66 | 1013.3 |
| 20260831002703 | 69 | 74 | 8.0 | 14.0 | 0.00 | 0.00 | 0.00 | 67 | 1013.5 |
| 20260831001803 | 69 | 72 | 8.0 | 12.0 | 0.00 | 0.00 | 0.00 | 66 | 1013.7 |
| 20260831000903 | 70 | 71 | 9.0 | 14.0 | 0.00 | 0.00 | 0.00 | 66 | 1013.6 |
| 20260831000004 | 70 | 71 | 9.0 | 17.0 | 0.00 | 0.00 | 0.00 | 66 | 1013.7 |
| 20260830235617 | 70 | 68 | 9.0 | 14.0 | 0.00 | 0.00 | 0.00 | 66 | 1013.8 |
| 20260830234503 | 70 | 75 | 9.0 | 13.0 | 0.00 | 0.00 | 0.00 | 67 | 1013.8 |
| 20260830232703 | 69 | 71 | 6.0 | 14.0 | 0.00 | 0.00 | 0.00 | 67 | 1013.9 |
| 20260830231803 | 69 | 70 | 7.0 | 13.0 | 0.00 | 0.00 | 0.00 | 66 | 1013.9 |
| 20260830230903 | 70 | 72 | 7.0 | 11.0 | 0.00 | 0.00 | 0.00 | 66 | 1013.9 |
| 20260830230004 | 69 | 70 | 6.0 | 10.0 | 0.00 | 0.00 | 0.00 | 66 | 1013.9 |
| 20260830225403 | 69 | 72 | 6.0 | 12.0 | 0.00 | 0.00 | 0.00 | 66 | 1014.0 |
| 20260830224718 | 70 | 68 | 7.0 | 12.0 | 0.00 | 0.00 | 0.00 | 66 | 1013.9 |
| 20260830223603 | 70 | 72 | 7.0 | 11.0 | 0.00 | 0.00 | 0.00 | 66 | 1014.0 |
| 20260830222703 | 70 | 71 | 7.0 | 11.0 | 0.00 | 0.00 | 0.00 | 65 | 1014.0 |
| 20260830221803 | 70 | 74 | 7.0 | 11.0 | 0.00 | 0.00 | 0.00 | 65 | 1014.0 |
| 20260830220903 | 70 | 75 | 8.0 | 12.0 | 0.00 | 0.00 | 0.00 | 65 | 1014.0 |
| 20260830220005 | 70 | 78 | 7.0 | 11.0 | 0.00 | 0.00 | 0.00 | 65 | 1014.0 |
| 20260830215403 | 70 | 76 | 6.0 | 10.0 | 0.00 | 0.00 | 0.00 | 65 | 1014.0 |
| 20260830214503 | 70 | 69 | 6.0 | 10.0 | 0.00 | 0.00 | 0.00 | 65 | 1014.0 |
| 20260830213603 | 70 | 71 | 6.0 | 10.0 | 0.00 | 0.00 | 0.00 | 64 | 1014.1 |
| 20260830212703 | 70 | 73 | 6.0 | 12.0 | 0.00 | 0.00 | 0.00 | 64 | 1014.1 |
| 20260830212017 | 70 | 74 | 6.0 | 11.0 | 0.00 | 0.00 | 0.00 | 64 | 1013.8 |
| 20260830210903 | 70 | 71 | 7.0 | 11.0 | 0.00 | 0.00 | 0.00 | 64 | 1013.8 |
| 20260830210003 | 70 | 68 | 7.0 | 11.0 | 0.00 | 0.00 | 0.00 | 64 | 1013.9 |
| 20260830205403 | 70 | 72 | 6.0 | 11.0 | 0.00 | 0.00 | 0.00 | 64 | 1013.8 |
| 20260830204503 | 70 | 74 | 6.0 | 9.0 | 0.00 | 0.00 | 0.00 | 63 | 1013.8 |
| 20260830203603 | 71 | 69 | 6.0 | 11.0 | 0.00 | 0.00 | 0.00 | 63 | 1014.0 |
| 20260830202703 | 71 | 74 | 6.0 | 11.0 | 0.00 | 0.00 | 0.00 | 62 | 1014.0 |
| 20260830201803 | 71 | 74 | 7.0 | 12.0 | 0.00 | 0.00 | 0.00 | 61 | 1014.0 |
| 20260830200903 | 72 | 75 | 7.0 | 12.0 | 0.00 | 0.00 | 0.00 | 61 | 1013.9 |
| 20260830200003 | 72 | 76 | 7.0 | 10.0 | 0.00 | 0.00 | 0.00 | 61 | 1013.9 |
| 20260830195403 | 72 | 76 | 8.0 | 13.0 | 0.00 | 0.00 | 0.00 | 61 | 1013.9 |
| 20260830194503 | 72 | 72 | 8.0 | 13.0 | 0.00 | 0.00 | 0.00 | 60 | 1014.0 |
| 20260830193818 | 72 | 72 | 8.0 | 14.0 | 0.00 | 0.00 | 0.00 | 60 | 1014.0 |
| 20260830192703 | 72 | 72 | 8.0 | 15.0 | 0.00 | 0.00 | 0.00 | 61 | 1013.9 |
| 20260830191803 | 72 | 74 | 7.0 | 12.0 | 0.00 | 0.00 | 0.00 | 61 | 1013.9 |
| 20260830191118 | 72 | 80 | 7.0 | 11.0 | 0.00 | 0.00 | 0.00 | 61 | 1013.8 |
| 20260830190004 | 72 | 81 | 7.0 | 13.0 | 0.00 | 0.00 | 0.00 | 61 | 1013.7 |
| 20260830185403 | 72 | 83 | 8.0 | 13.0 | 0.00 | 0.00 | 0.00 | 61 | 1013.7 |
| 20260830184503 | 72 | 81 | 7.0 | 14.0 | 0.00 | 0.00 | 0.00 | 61 | 1013.6 |
| 20260830183603 | 72 | 77 | 6.0 | 11.0 | 0.00 | 0.00 | 0.00 | 61 | 1013.5 |
| 20260830182917 | 72 | 75 | 5.0 | 10.0 | 0.00 | 0.00 | 0.00 | 61 | 1013.2 |
| 20260830181803 | 71 | 62 | 4.0 | 6.0 | 0.00 | 0.00 | 0.00 | 61 | 1013.2 |
| 20260830180903 | 72 | 63 | 4.0 | 6.0 | 0.00 | 0.00 | 0.00 | 59 | 1013.2 |
| 20260830180004 | 73 | 66 | 4.0 | 7.0 | 0.00 | 0.00 | 0.00 | 58 | 1013.1 |
| 20260830175403 | 73 | 57 | 3.0 | 6.0 | 0.00 | 0.00 | 0.00 | 58 | 1013.2 |
| 20260830174503 | 74 | 65 | 3.0 | 5.0 | 0.00 | 0.00 | 0.00 | 56 | 1013.1 |
| 20260830173603 | 76 | 71 | 2.0 | 4.0 | 0.00 | 0.00 | 0.00 | 54 | 1013.2 |
| 20260830172703 | 78 | 87 | 1.0 | 2.0 | 0.00 | 0.00 | 0.00 | 52 | 1013.2 |
| 20260830171803 | 79 | 112 | 0.0 | 2.0 | 0.00 | 0.00 | 0.00 | 51 | 1013.3 |
| 20260830170903 | 80 | 122 | 0.0 | 2.0 | 0.00 | 0.00 | 0.00 | 51 | 1013.2 |
| 20260830170004 | 80 | 223 | 0.0 | 3.0 | 0.00 | 0.00 | 0.00 | 49 | 1013.2 |
| 20260830165403 | 83 | 247 | 0.0 | 2.0 | 0.00 | 0.00 | 0.00 | 48 | 1013.2 |
| 20260830164503 | 83 | 284 | 0.0 | 3.0 | 0.00 | 0.00 | 0.00 | 48 | 1013.2 |
| 20260830163603 | 83 | 264 | 1.0 | 5.0 | 0.00 | 0.00 | 0.00 | 47 | 1013.2 |
| 20260830162703 | 83 | 267 | 0.0 | 4.0 | 0.00 | 0.00 | 0.00 | 47 | 1013.2 |
| 20260830161803 | 84 | 263 | 1.0 | 6.0 | 0.00 | 0.00 | 0.00 | 46 | 1013.3 |
| 20260830160903 | 84 | 280 | 1.0 | 3.0 | 0.00 | 0.00 | 0.00 | 46 | 1013.3 |
| 20260830160218 | 83 | 266 | 1.0 | 3.0 | 0.00 | 0.00 | 0.00 | 47 | 1013.5 |
| 20260830155403 | 83 | 300 | 0.0 | 2.0 | 0.00 | 0.00 | 0.00 | 47 | 1013.3 |
| 20260830154503 | 83 | 200 | 1.0 | 3.0 | 0.00 | 0.00 | 0.00 | 48 | 1013.3 |
| 20260830153818 | 81 | 181 | 2.0 | 4.0 | 0.00 | 0.00 | 0.00 | 47 | 1013.3 |
| 20260830152918 | 83 | 231 | 1.0 | 4.0 | 0.00 | 0.00 | 0.00 | 46 | 1013.3 |
| 20260830151803 | 82 | 237 | 3.0 | 6.0 | 0.00 | 0.00 | 0.00 | 47 | 1013.5 |
| 20260830150903 | 82 | 240 | 2.0 | 8.0 | 0.00 | 0.00 | 0.00 | 46 | 1013.5 |
| 20260830150003 | 83 | 266 | 1.0 | 6.0 | 0.00 | 0.00 | 0.00 | 46 | 1013.5 |
| 20260830145617 | 84 | 281 | 1.0 | 6.0 | 0.00 | 0.00 | 0.00 | 45 | 1013.5 |
| 20260830144503 | 84 | 281 | 2.0 | 4.0 | 0.00 | 0.00 | 0.00 | 45 | 1013.6 |
| 20260830143603 | 82 | 250 | 2.0 | 7.0 | 0.00 | 0.00 | 0.00 | 47 | 1013.7 |
| 20260830142703 | 82 | 240 | 4.0 | 9.0 | 0.00 | 0.00 | 0.00 | 46 | 1013.6 |
| 20260830141803 | 83 | 270 | 2.0 | 7.0 | 0.00 | 0.00 | 0.00 | 46 | 1013.7 |
| 20260830140903 | 82 | 98 | 2.0 | 5.0 | 0.00 | 0.00 | 0.00 | 47 | 1013.9 |
| 20260830140004 | 83 | 63 | 2.0 | 4.0 | 0.00 | 0.00 | 0.00 | 47 | 1013.9 |
| 20260830135404 | 83 | 65 | 2.0 | 5.0 | 0.00 | 0.00 | 0.00 | 47 | 1013.9 |
| 20260830134503 | 83 | 163 | 1.0 | 3.0 | 0.00 | 0.00 | 0.00 | 46 | 1014.0 |
| 20260830133603 | 84 | 47 | 1.0 | 6.0 | 0.00 | 0.00 | 0.00 | 47 | 1013.9 |
| 20260830132703 | 83 | 130 | 1.0 | 6.0 | 0.00 | 0.00 | 0.00 | 48 | 1014.0 |
| 20260830131803 | 82 | 259 | 1.0 | 4.0 | 0.00 | 0.00 | 0.00 | 48 | 1014.0 |
| 20260830130903 | 82 | 358 | 1.0 | 5.0 | 0.00 | 0.00 | 0.00 | 48 | 1014.0 |